• In Switzerland
  • List of Countries
  • For 7 days
  • Water Temperature
  • Satellite Maps
  • Weather Map
  • Weather Widgets
  • user-avatar
    Login

    Hourly Weather Meshhed

    Today, 19 October, Friday

    Time Temperature Precipitation Wind Pressure Humidity
    00:00 +5°C° 0 mm 2 mps 615 mmHg 34%
    01:00 +6°C° 0 mm 1 mps 615 mmHg 35%
    02:00 +5°C° 0 mm 1 mps 615 mmHg 36%
    03:00 +5°C° 0 mm 1 mps 615 mmHg 37%
    04:00 +5°C° 0 mm 1 mps 614 mmHg 38%
    05:00 +5°C° 0 mm 1 mps 615 mmHg 37%
    06:00 +5°C° 0 mm 1 mps 615 mmHg 37%
    07:00 +5°C° 0 mm 1 mps 615 mmHg 36%
    08:00 +7°C° 0 mm 1 mps 616 mmHg 33%
    09:00 +9°C° 0 mm 1 mps 617 mmHg 31%
    10:00 +10°C° 0 mm 1 mps 617 mmHg 28%
    11:00 +11°C° 0 mm 1 mps 618 mmHg 26%
    12:00 +12°C° 0 mm 1 mps 618 mmHg 24%
    13:00 +13°C° 0 mm 1 mps 618 mmHg 23%
    14:00 +13°C° 0 mm 2 mps 618 mmHg 22%
    15:00 +13°C° 0 mm 2 mps 618 mmHg 22%
    16:00 +13°C° 0 mm 2 mps 618 mmHg 22%
    17:00 +12°C° 0 mm 2 mps 617 mmHg 24%
    18:00 +10°C° 0 mm 2 mps 617 mmHg 26%
    19:00 +9°C° 0 mm 3 mps 617 mmHg 27%
    20:00 +8°C° 0 mm 2 mps 617 mmHg 29%
    21:00 +8°C° 0 mm 2 mps 616 mmHg 31%
    22:00 +7°C° 0 mm 2 mps 616 mmHg 32%
    23:00 +6°C° 0 mm 2 mps 616 mmHg 33%

    Tomorrow, 20 October, Saturday

    Time Temperature Precipitation Wind Pressure Humidity
    00:00 +7°C° 0 mm 1 mps 615 mmHg 34%
    01:00 +6°C° 0 mm 1 mps 615 mmHg 35%
    02:00 +6°C° 0 mm 1 mps 615 mmHg 36%
    03:00 +6°C° 0 mm 1 mps 615 mmHg 37%
    04:00 +4°C° 0 mm 0 mps 614 mmHg 38%
    05:00 +5°C° 0 mm 0 mps 615 mmHg 37%
    06:00 +5°C° 0 mm 0 mps 615 mmHg 37%
    07:00 +5°C° 0 mm 0 mps 615 mmHg 36%
    08:00 +7°C° 0 mm 0 mps 616 mmHg 32%
    09:00 +9°C° 0 mm 0 mps 617 mmHg 27%
    10:00 +11°C° 0 mm 0 mps 618 mmHg 23%
    11:00 +13°C° 0 mm 1 mps 618 mmHg 21%
    12:00 +14°C° 0 mm 1 mps 618 mmHg 19%
    13:00 +15°C° 0 mm 1 mps 618 mmHg 18%
    14:00 +15°C° 0 mm 1 mps 617 mmHg 17%
    15:00 +15°C° 0 mm 1 mps 617 mmHg 17%
    16:00 +15°C° 0 mm 1 mps 617 mmHg 17%
    17:00 +14°C° 0 mm 2 mps 617 mmHg 19%
    18:00 +13°C° 0 mm 2 mps 617 mmHg 21%
    19:00 +10°C° 0 mm 2 mps 616 mmHg 22%
    20:00 +10°C° 0 mm 2 mps 616 mmHg 24%
    21:00 +10°C° 0 mm 1 mps 616 mmHg 26%
    22:00 +9°C° 0 mm 1 mps 615 mmHg 27%
    23:00 +8°C° 0 mm 1 mps 615 mmHg 28%

    Day after tomorrow, 21 October, Sunday

    Time Temperature Precipitation Wind Pressure Humidity
    00:00 +8°C° 0 mm 1 mps 615 mmHg 29%
    01:00 +7°C° 0 mm 1 mps 614 mmHg 30%
    02:00 +7°C° 0 mm 1 mps 614 mmHg 30%
    03:00 +7°C° 0 mm 1 mps 614 mmHg 30%
    04:00 +7°C° 0 mm 1 mps 613 mmHg 31%
    05:00 +7°C° 0 mm 1 mps 614 mmHg 30%
    06:00 +7°C° 0 mm 1 mps 614 mmHg 29%
    07:00 +8°C° 0 mm 1 mps 614 mmHg 29%
    08:00 +10°C° 0 mm 1 mps 615 mmHg 25%
    09:00 +12°C° 0 mm 2 mps 616 mmHg 22%
    10:00 +14°C° 0 mm 2 mps 617 mmHg 18%
    11:00 +15°C° 0 mm 2 mps 617 mmHg 17%
    12:00 +16°C° 0 mm 3 mps 617 mmHg 16%
    13:00 +17°C° 0 mm 3 mps 617 mmHg 15%
    14:00 +17°C° 0 mm 3 mps 617 mmHg 15%
    15:00 +17°C° 0 mm 3 mps 617 mmHg 15%
    16:00 +17°C° 0 mm 3 mps 617 mmHg 16%
    17:00 +15°C° 0 mm 2 mps 616 mmHg 19%
    18:00 +14°C° 0 mm 1 mps 616 mmHg 21%
    19:00 +12°C° 0 mm 1 mps 615 mmHg 24%
    20:00 +12°C° 0 mm 1 mps 615 mmHg 25%
    21:00 +11°C° 0 mm 1 mps 615 mmHg 27%
    22:00 +10°C° 0 mm 1 mps 615 mmHg 28%
    23:00 +10°C° 0 mm 1 mps 614 mmHg 29%

    22 October, Monday

    Time Temperature Precipitation Wind Pressure Humidity
    00:00 +9°C° 0 mm 1 mps 614 mmHg 29%
    01:00 +9°C° 0 mm 1 mps 614 mmHg 30%
    02:00 +9°C° 0 mm 1 mps 613 mmHg 31%
    03:00 +9°C° 0 mm 1 mps 613 mmHg 32%
    04:00 +8°C° 0 mm 1 mps 613 mmHg 32%
    05:00 +9°C° 0 mm 1 mps 613 mmHg 32%
    06:00 +9°C° 0 mm 1 mps 613 mmHg 32%
    07:00 +9°C° 0 mm 1 mps 614 mmHg 31%
    08:00 +11°C° 0 mm 1 mps 615 mmHg 28%
    09:00 +14°C° 0 mm 2 mps 616 mmHg 24%
    10:00 +16°C° 0 mm 2 mps 617 mmHg 20%
    11:00 +17°C° 0 mm 2 mps 617 mmHg 20%
    12:00 +18°C° 0 mm 2 mps 617 mmHg 19%
    13:00 +19°C° 0 mm 2 mps 617 mmHg 19%
    14:00 +19°C° 0 mm 2 mps 616 mmHg 19%
    15:00 +19°C° 0 mm 2 mps 616 mmHg 19%
    16:00 +19°C° 0 mm 2 mps 616 mmHg 20%
    17:00 +19°C° 0 mm 1 mps 615 mmHg 22%
    18:00 +16°C° 0 mm 1 mps 615 mmHg 25%
    19:00 +15°C° 0 mm 1 mps 614 mmHg 27%
    20:00 +14°C° 0 mm 1 mps 614 mmHg 28%
    21:00 +13°C° 0 mm 0 mps 614 mmHg 28%
    22:00 +12°C° 0 mm 0 mps 614 mmHg 29%
    23:00 +13°C° 0 mm 1 mps 614 mmHg 30%

    23 October, Tuesday

    Time Temperature Precipitation Wind Pressure Humidity
    00:00 +13°C° 0 mm 1 mps 613 mmHg 31%
    01:00 +13°C° 0 mm 1 mps 613 mmHg 32%
    02:00 +13°C° 0 mm 1 mps 613 mmHg 33%
    03:00 +13°C° 0 mm 1 mps 613 mmHg 35%
    04:00 +12°C° 0 mm 2 mps 613 mmHg 37%
    05:00 +12°C° 0.1 mm 1 mps 613 mmHg 40%
    06:00 +12°C° 0.1 mm 1 mps 614 mmHg 42%
    07:00 +12°C° 0.1 mm 1 mps 614 mmHg 44%
    08:00 +13°C° 0 mm 1 mps 614 mmHg 42%
    09:00 +14°C° 0 mm 1 mps 615 mmHg 40%
    10:00 +15°C° 0 mm 1 mps 616 mmHg 37%
    11:00 +16°C° 0 mm 2 mps 616 mmHg 35%
    12:00 +16°C° 0 mm 2 mps 615 mmHg 33%
    13:00 +17°C° 0 mm 2 mps 615 mmHg 31%
    14:00 +17°C° 0 mm 2 mps 615 mmHg 32%
    15:00 +17°C° 0 mm 2 mps 615 mmHg 32%
    16:00 +17°C° 0 mm 2 mps 615 mmHg 32%
    17:00 +16°C° 0 mm 2 mps 615 mmHg 35%
    18:00 +15°C° 0 mm 2 mps 615 mmHg 37%
    19:00 +14°C° 0 mm 2 mps 615 mmHg 39%
    20:00 +13°C° 0 mm 2 mps 615 mmHg 39%
    21:00 +12°C° 0 mm 2 mps 615 mmHg 40%
    22:00 +12°C° 0 mm 2 mps 615 mmHg 40%
    23:00 +11°C° 0 mm 1 mps 614 mmHg 41%

    24 October, Wednesday

    Time Temperature Precipitation Wind Pressure Humidity
    00:00 +10°C° 0 mm 1 mps 614 mmHg 42%
    01:00 +10°C° 0 mm 1 mps 614 mmHg 43%
    02:00 +10°C° 0 mm 1 mps 613 mmHg 45%
    03:00 +9°C° 0 mm 1 mps 613 mmHg 47%
    04:00 +9°C° 0 mm 1 mps 613 mmHg 48%
    05:00 +9°C° 0 mm 1 mps 613 mmHg 49%
    06:00 +9°C° 0 mm 1 mps 613 mmHg 50%
    07:00 +9°C° 0 mm 1 mps 614 mmHg 50%
    08:00 +11°C° 0 mm 1 mps 614 mmHg 46%
    09:00 +13°C° 0 mm 1 mps 615 mmHg 42%
    10:00 +14°C° 0 mm 1 mps 616 mmHg 39%
    11:00 +15°C° 0 mm 1 mps 615 mmHg 36%
    12:00 +16°C° 0 mm 1 mps 615 mmHg 33%
    13:00 +18°C° 0 mm 1 mps 615 mmHg 30%
    14:00 +17°C° 0 mm 2 mps 615 mmHg 30%
    15:00 +17°C° 0 mm 2 mps 615 mmHg 29%
    16:00 +17°C° 0 mm 2 mps 615 mmHg 29%
    17:00 +16°C° 0 mm 2 mps 614 mmHg 31%
    18:00 +15°C° 0 mm 1 mps 614 mmHg 34%
    19:00 +14°C° 0 mm 1 mps 614 mmHg 36%
    20:00 +13°C° 0 mm 1 mps 614 mmHg 38%
    21:00 +13°C° 0 mm 1 mps 613 mmHg 40%
    22:00 +12°C° 0 mm 1 mps 613 mmHg 42%
    23:00 +11°C° 0 mm 1 mps 613 mmHg 44%
    Show more